| time (UTC) | temp C | wind direction | speed KPH | gust KPH | rain 1hr cm | rain 24hr cm | rain mn cm | humidity % | barometer mb |
| 20260507074503 | 13 | 294 | 1.6 | 8.0 | 0.43 | 0.76 | 0.43 | 1 | 1007.1 |
| 20260507074004 | 13 | 297 | 3.2 | 8.0 | 0.30 | 0.64 | 0.30 | 1 | 1006.5 |
| 20260507073503 | 13 | 303 | 1.6 | 8.0 | 0.13 | 0.46 | 0.13 | 1 | 1006.0 |
| 20260507072504 | 13 | 0 | 0.0 | 3.2 | 0.00 | 0.33 | 0.00 | 1 | 1005.5 |
| 20260507072003 | 13 | 0 | 0.0 | 1.6 | 0.00 | 0.33 | 0.00 | 1 | 1005.5 |
| 20260507071504 | 13 | 0 | 0.0 | 0.0 | 0.00 | 0.33 | 0.00 | 1 | 1005.5 |
| 20260507070503 | 13 | 0 | 0.0 | 0.0 | 0.00 | 0.33 | 0.00 | 1 | 1005.3 |
| 20260507070008 | 13 | 0 | 0.0 | 0.0 | 0.00 | 0.33 | 0.00 | 1 | 1005.5 |
| 20260507065503 | 13 | 0 | 0.0 | 0.0 | 0.00 | 0.33 | 0.00 | 1 | 1005.6 |
| 20260507065004 | 13 | 0 | 0.0 | 0.0 | 0.00 | 0.33 | 0.00 | 1 | 1005.6 |
| 20260507064503 | 13 | 0 | 0.0 | 0.0 | 0.00 | 0.33 | 0.00 | 1 | 1005.7 |
| 20260507064003 | 13 | 0 | 0.0 | 0.0 | 0.00 | 0.33 | 0.00 | 1 | 1005.7 |
| 20260507062503 | 13 | 0 | 0.0 | 0.0 | 0.00 | 0.33 | 0.00 | 1 | 1005.8 |
| 20260507061503 | 13 | 0 | 0.0 | 0.0 | 0.00 | 0.33 | 0.00 | 1 | 1005.6 |
| 20260507060503 | 13 | 0 | 0.0 | 0.0 | 0.00 | 0.33 | 0.00 | 1 | 1005.9 |
| 20260507060004 | 13 | 0 | 0.0 | 0.0 | 0.00 | 0.33 | 0.00 | 1 | 1006.0 |
| 20260507055504 | 13 | 0 | 0.0 | 0.0 | 0.00 | 0.33 | 0.00 | 1 | 1006.0 |
| 20260507053503 | 13 | 0 | 0.0 | 0.0 | 0.00 | 0.33 | 0.00 | 1 | 1006.4 |
| 20260507053004 | 13 | 0 | 0.0 | 1.6 | 0.00 | 0.33 | 0.00 | 1 | 1006.3 |
| 20260507052003 | 13 | 0 | 0.0 | 1.6 | 0.00 | 0.33 | 0.00 | 1 | 1006.5 |
| 20260507051503 | 13 | 0 | 0.0 | 4.8 | 0.00 | 0.33 | 0.00 | 1 | 1006.5 |
| 20260507051003 | 13 | 0 | 0.0 | 4.8 | 0.00 | 0.33 | 0.00 | 1 | 1006.6 |
| 20260507050504 | 13 | 0 | 0.0 | 4.8 | 0.00 | 0.33 | 0.00 | 1 | 1006.6 |
| 20260507045503 | 13 | 0 | 0.0 | 8.0 | 0.00 | 0.33 | 0.00 | 1 | 1006.5 |
| 20260507045003 | 13 | 0 | 0.0 | 8.0 | 0.00 | 0.33 | 0.00 | 1 | 1006.6 |
| 20260507044503 | 13 | 0 | 0.0 | 3.2 | 0.00 | 0.33 | 0.00 | 1 | 1006.6 |
| 20260507044003 | 13 | 0 | 0.0 | 3.2 | 0.00 | 0.33 | 0.00 | 1 | 1006.6 |
| 20260507043503 | 13 | 0 | 0.0 | 1.6 | 0.00 | 0.33 | 0.00 | 1 | 1006.6 |
| 20260507043004 | 13 | 0 | 0.0 | 4.8 | 0.00 | 0.33 | 0.00 | 1 | 1006.5 |
| 20260507042503 | 13 | 0 | 0.0 | 4.8 | 0.00 | 0.33 | 0.00 | 1 | 1006.5 |
| 20260507042004 | 13 | 0 | 0.0 | 1.6 | 0.00 | 0.33 | 0.00 | 1 | 1006.5 |
| 20260507041503 | 13 | 0 | 0.0 | 3.2 | 0.00 | 0.33 | 0.00 | 1 | 1006.4 |
| 20260507040503 | 13 | 0 | 0.0 | 4.8 | 0.00 | 0.33 | 0.00 | 1 | 1006.5 |
| 20260507040004 | 13 | 0 | 0.0 | 4.8 | 0.00 | 0.33 | 0.00 | 1 | 1006.5 |
| 20260507035504 | 13 | 0 | 0.0 | 4.8 | 0.00 | 0.33 | 0.33 | 1 | 1006.3 |
| 20260507035004 | 13 | 0 | 0.0 | 3.2 | 0.00 | 0.33 | 0.33 | 1 | 1006.4 |
| 20260507034503 | 13 | 167 | 1.6 | 8.0 | 0.00 | 0.33 | 0.33 | 1 | 1006.5 |
| 20260507034003 | 13 | 169 | 1.6 | 8.0 | 0.00 | 0.33 | 0.33 | 1 | 1006.5 |
| 20260507033503 | 13 | 0 | 0.0 | 3.2 | 0.00 | 0.33 | 0.33 | 1 | 1006.7 |
| 20260507033004 | 13 | 165 | 1.6 | 8.0 | 0.00 | 0.33 | 0.33 | 1 | 1006.9 |
| 20260507032503 | 13 | 169 | 1.6 | 8.0 | 0.00 | 0.33 | 0.33 | 1 | 1007.0 |
| 20260507032003 | 13 | 173 | 1.6 | 8.0 | 0.00 | 0.33 | 0.33 | 1 | 1006.8 |
| 20260507031503 | 13 | 175 | 1.6 | 11.3 | 0.00 | 0.33 | 0.33 | 1 | 1006.8 |
| 20260507030003 | 13 | 176 | 1.6 | 11.3 | 0.00 | 0.33 | 0.33 | 1 | 1006.6 |
| 20260507025504 | 13 | 187 | 1.6 | 9.7 | 0.00 | 0.33 | 0.33 | 1 | 1006.7 |
| 20260507025003 | 13 | 189 | 1.6 | 9.7 | 0.00 | 0.33 | 0.33 | 1 | 1006.6 |
| 20260507024503 | 13 | 181 | 1.6 | 6.4 | 0.00 | 0.33 | 0.33 | 1 | 1006.5 |
| 20260507024003 | 13 | 183 | 1.6 | 9.7 | 0.00 | 0.33 | 0.33 | 1 | 1006.6 |
| 20260507023503 | 13 | 184 | 1.6 | 9.7 | 0.00 | 0.33 | 0.33 | 1 | 1006.7 |
| 20260507022503 | 13 | 189 | 1.6 | 8.0 | 0.00 | 0.33 | 0.33 | 1 | 1006.6 |
| 20260507022003 | 13 | 0 | 0.0 | 6.4 | 0.00 | 0.33 | 0.33 | 1 | 1006.6 |
| 20260507021004 | 13 | 0 | 0.0 | 8.0 | 0.00 | 0.33 | 0.33 | 1 | 1006.7 |
| 20260507020503 | 13 | 174 | 1.6 | 8.0 | 0.00 | 0.33 | 0.33 | 1 | 1006.7 |
| 20260507020003 | 13 | 171 | 1.6 | 8.0 | 0.00 | 0.33 | 0.33 | 1 | 1006.8 |
| 20260507015004 | 13 | 172 | 1.6 | 9.7 | 0.00 | 0.33 | 0.33 | 1 | 1007.0 |
| 20260507014503 | 13 | 174 | 1.6 | 9.7 | 0.00 | 0.33 | 0.33 | 1 | 1007.1 |
| 20260507014003 | 13 | 155 | 1.6 | 12.9 | 0.00 | 0.33 | 0.33 | 1 | 1007.2 |
| 20260507013503 | 13 | 168 | 1.6 | 12.9 | 0.00 | 0.33 | 0.33 | 1 | 1006.9 |
| 20260507013004 | 13 | 0 | 0.0 | 8.0 | 0.00 | 0.33 | 0.33 | 1 | 1007.0 |
| 20260507012503 | 13 | 177 | 1.6 | 8.0 | 0.00 | 0.33 | 0.33 | 1 | 1007.2 |
| 20260507011503 | 13 | 176 | 1.6 | 9.7 | 0.00 | 0.33 | 0.33 | 1 | 1007.2 |
| 20260507011004 | 13 | 177 | 1.6 | 11.3 | 0.00 | 0.33 | 0.33 | 1 | 1007.2 |
| 20260507010503 | 13 | 169 | 1.6 | 11.3 | 0.00 | 0.33 | 0.33 | 1 | 1007.3 |
| 20260507010004 | 13 | 0 | 0.0 | 6.4 | 0.00 | 0.33 | 0.33 | 1 | 1007.4 |
| 20260507005503 | 13 | 174 | 1.6 | 14.5 | 0.00 | 0.33 | 0.33 | 1 | 1007.3 |
| 20260507005004 | 13 | 183 | 1.6 | 14.5 | 0.00 | 0.33 | 0.33 | 1 | 1007.3 |
| 20260507004503 | 13 | 188 | 3.2 | 14.5 | 0.00 | 0.33 | 0.33 | 1 | 1007.3 |
| 20260507004004 | 13 | 189 | 1.6 | 8.0 | 0.00 | 0.33 | 0.33 | 1 | 1007.3 |
| 20260507003504 | 13 | 179 | 1.6 | 8.0 | 0.00 | 0.33 | 0.33 | 1 | 1007.2 |
| 20260507003004 | 13 | 179 | 1.6 | 8.0 | 0.00 | 0.33 | 0.33 | 1 | 1007.2 |
| 20260507002503 | 13 | 191 | 1.6 | 12.9 | 0.03 | 0.33 | 0.33 | 1 | 1007.3 |
| 20260507002004 | 13 | 185 | 3.2 | 12.9 | 0.05 | 0.33 | 0.33 | 1 | 1007.2 |
| 20260507001503 | 13 | 179 | 3.2 | 14.5 | 0.05 | 0.33 | 0.33 | 1 | 1007.2 |
| 20260507001003 | 13 | 183 | 3.2 | 14.5 | 0.05 | 0.33 | 0.33 | 1 | 1007.2 |
| 20260507000503 | 13 | 187 | 3.2 | 11.3 | 0.05 | 0.33 | 0.33 | 1 | 1007.2 |
| 20260507000004 | 13 | 187 | 3.2 | 16.1 | 0.05 | 0.33 | 0.33 | 1 | 1007.2 |
| 20260506235504 | 13 | 187 | 3.2 | 16.1 | 0.08 | 0.33 | 0.33 | 1 | 1007.1 |
| 20260506235003 | 13 | 191 | 3.2 | 14.5 | 0.08 | 0.33 | 0.33 | 1 | 1007.2 |
| 20260506234503 | 13 | 190 | 3.2 | 12.9 | 0.10 | 0.33 | 0.33 | 1 | 1007.1 |
| 20260506234004 | 13 | 187 | 3.2 | 12.9 | 0.10 | 0.33 | 0.33 | 1 | 1007.2 |
| 20260506233503 | 13 | 181 | 3.2 | 16.1 | 0.13 | 0.33 | 0.33 | 1 | 1007.2 |
| 20260506233003 | 13 | 181 | 3.2 | 16.1 | 0.13 | 0.33 | 0.33 | 1 | 1007.2 |
| 20260506232503 | 13 | 186 | 3.2 | 11.3 | 0.15 | 0.30 | 0.30 | 1 | 1007.3 |
| 20260506232004 | 13 | 189 | 3.2 | 11.3 | 0.13 | 0.28 | 0.28 | 1 | 1007.3 |
| 20260506231504 | 13 | 187 | 3.2 | 11.3 | 0.15 | 0.28 | 0.28 | 1 | 1007.3 |
| 20260506231003 | 13 | 183 | 3.2 | 16.1 | 0.15 | 0.28 | 0.28 | 1 | 1007.3 |
| 20260506230503 | 13 | 188 | 4.8 | 16.1 | 0.15 | 0.28 | 0.28 | 1 | 1007.2 |
| 20260506230004 | 13 | 189 | 3.2 | 11.3 | 0.15 | 0.25 | 0.25 | 1 | 1007.3 |
| 20260506225504 | 13 | 184 | 3.2 | 14.5 | 0.15 | 0.25 | 0.25 | 1 | 1007.2 |
| 20260506225003 | 13 | 183 | 3.2 | 14.5 | 0.13 | 0.23 | 0.23 | 1 | 1007.1 |
| 20260506224503 | 13 | 185 | 3.2 | 12.9 | 0.13 | 0.23 | 0.23 | 1 | 1007.1 |
| 20260506224003 | 13 | 194 | 3.2 | 11.3 | 0.10 | 0.20 | 0.20 | 1 | 1007.1 |
| 20260506223504 | 13 | 191 | 4.8 | 17.7 | 0.10 | 0.20 | 0.20 | 1 | 1007.1 |
| 20260506222504 | 13 | 187 | 3.2 | 12.9 | 0.05 | 0.15 | 0.15 | 1 | 1007.2 |
| 20260506222003 | 13 | 192 | 3.2 | 14.5 | 0.05 | 0.15 | 0.15 | 1 | 1007.3 |
| 20260506221504 | 13 | 191 | 3.2 | 14.5 | 0.03 | 0.13 | 0.13 | 1 | 1007.2 |
| 20260506221004 | 13 | 189 | 4.8 | 14.5 | 0.03 | 0.13 | 0.13 | 1 | 1007.7 |
| 20260506220504 | 13 | 185 | 4.8 | 14.5 | 0.05 | 0.13 | 0.13 | 1 | 1007.5 |
| 20260506220003 | 13 | 176 | 3.2 | 20.9 | 0.03 | 0.10 | 0.10 | 1 | 1007.6 |
| 20260506215503 | 13 | 182 | 4.8 | 20.9 | 0.03 | 0.10 | 0.10 | 1 | 1007.7 |
| 20260506215004 | 13 | 187 | 4.8 | 12.9 | 0.05 | 0.10 | 0.10 | 1 | 1007.6 |
| 20260506214503 | 13 | 186 | 4.8 | 19.3 | 0.05 | 0.10 | 0.10 | 1 | 1007.5 |
| 20260506214003 | 13 | 191 | 4.8 | 19.3 | 0.05 | 0.10 | 0.10 | 1 | 1007.6 |
| 20260506213003 | 13 | 188 | 4.8 | 24.1 | 0.05 | 0.10 | 0.10 | 1 | 1007.6 |
| 20260506212503 | 13 | 189 | 4.8 | 20.9 | 0.05 | 0.10 | 0.10 | 1 | 1007.8 |
| 20260506211003 | 13 | 188 | 4.8 | 16.1 | 0.05 | 0.10 | 0.10 | 1 | 1007.9 |
| 20260506210503 | 13 | 181 | 4.8 | 16.1 | 0.03 | 0.08 | 0.08 | 1 | 1007.9 |
| 20260506205503 | 13 | 193 | 4.8 | 22.5 | 0.03 | 0.08 | 0.08 | 1 | 1007.9 |
| 20260506205003 | 13 | 192 | 4.8 | 24.1 | 0.00 | 0.05 | 0.05 | 1 | 1008.1 |
| 20260506203503 | 13 | 187 | 4.8 | 19.3 | 0.05 | 0.05 | 0.05 | 1 | 1008.1 |
| 20260506202504 | 13 | 183 | 4.8 | 17.7 | 0.05 | 0.05 | 0.05 | 1 | 1008.1 |